Weather History for Wenatchee, WA

Change the Weather History Date:

Thursday, March 21, 2013

  Actual Average Record
Temperature  
Mean Temperature 33 °F 46 °F  
Max Temperature 43 °F 56 °F 72 °F (1960)
Min Temperature 22 °F 36 °F 25 °F (2002)
Degree Days  
Heating Degree Days 32 19  
Month to date heating degree days 529 472  
Since 1 July heating degree days 5392 4936  
Cooling Degree Days 0 0  
Month to date cooling degree days 0 0  
Year to date cooling degree days 0 0  
Moisture  
Dew Point 22 °F    
Average Humidity 52    
Maximum Humidity 67    
Minimum Humidity 33    
Precipitation  
Precipitation T in 0.02 in 0.21 in (1975)
Month to date precipitation 0.61 0.46  
Year to date precipitation 2.76 2.33  
Snow  
Snow T in 0.00 in - ()
Month to date snowfall 1.0 0.9  
Snow Depth T in    
Sea Level Pressure  
Sea Level Pressure 30.02 in    
Wind  
Wind Speed 6 mph (NNW)    
Max Wind Speed 15 mph    
Max Gust Speed 23 mph    
Visibility 10 miles    
Events Rain    
T = Trace of Precipitation, MM = Missing Value Source: NWS Daily Summary

Daily Weather History Graph

Daily Weather History Graph

Search for Another Location

Airport:

Trip Planner

Search our weather history database for the weather conditions in past years. The results will help you decide how hot, cold, wet, or windy it might be!

Date:

Astronomy

Mar. 21, 2013 Rise Set
Actual Time 7:01 AM PDT 7:15 PM PDT
Civil Twilight 6:30 AM PDT 7:46 PM PDT
Nautical Twilight 5:54 AM PDT 8:22 PM PDT
Astronomical Twilight 5:17 AM PDT 8:59 PM PDT
Moon 1:30 PM PDT (3/21) 3:46 AM PDT (3/21)
Length of Visible Light 13h 15m
Length of Day
12h 14m
Waxing Gibbous, 69% of the Moon is Illuminated
Mar 21
Waxing Gibbous
Mar 27
Full
Apr 2
Last Quarter
Apr 10
New
Apr 18
First Quarter

Hourly Weather History & Observations

Time (PDT) Temp. Windchill Dew Point Humidity Pressure Visibility Wind Dir Wind Speed Gust Speed Precip Events Conditions
1:55 AM 36.0 °F 31.1 °F 21.9 °F 57% 29.87 in 10.0 mi North 5.8 mph - N/A   Mostly Cloudy
2:55 AM 36.0 °F 31.1 °F 23.0 °F 59% 29.90 in 10.0 mi North 5.8 mph - N/A   Overcast
3:55 AM 35.1 °F - 24.1 °F 64% 29.93 in 10.0 mi Calm Calm - N/A   Overcast
4:55 AM 36.0 °F - 21.9 °F 57% 29.95 in 10.0 mi Calm Calm - N/A   Overcast
5:55 AM 34.0 °F - 21.9 °F 61% 29.96 in 10.0 mi Calm Calm - N/A   Mostly Cloudy
6:55 AM 30.9 °F 25.2 °F 21.0 °F 67% 29.99 in 10.0 mi East 5.8 mph - N/A   Clear
7:55 AM 35.1 °F 31.0 °F 23.0 °F 61% 30.01 in 10.0 mi NE 4.6 mph - N/A   Mostly Cloudy
8:55 AM 37.9 °F 34.4 °F 23.0 °F 55% 30.02 in 10.0 mi SSE 4.6 mph - N/A   Mostly Cloudy
9:55 AM 41.0 °F - 19.0 °F 41% 30.02 in 10.0 mi Calm Calm - N/A   Mostly Cloudy
10:55 AM 44.1 °F 42.5 °F 19.9 °F 38% 30.04 in 10.0 mi ENE 3.5 mph - N/A   Scattered Clouds
11:55 AM 44.1 °F 41.5 °F 19.0 °F 37% 30.04 in 10.0 mi Variable 4.6 mph - N/A   Mostly Cloudy
12:55 PM 45.0 °F 41.2 °F 19.0 °F 36% 30.04 in 10.0 mi West 6.9 mph - N/A   Mostly Cloudy
1:55 PM 43.0 °F 37.2 °F 21.0 °F 42% 30.04 in 10.0 mi WSW 10.4 mph 20.7 mph N/A   Scattered Clouds
2:55 PM 44.1 °F 42.5 °F 19.9 °F 38% 30.03 in 10.0 mi WNW 3.5 mph - N/A   Overcast
3:55 PM 46.0 °F 42.5 °F 18.0 °F 33% 30.01 in 10.0 mi NNW 6.9 mph - N/A   Mostly Cloudy
4:55 PM 41.0 °F 33.9 °F 21.9 °F 47% 30.04 in 6.0 mi NNW 12.7 mph 23.0 mph 0.00 in Rain Light Rain
5:55 PM 39.0 °F 31.0 °F 28.0 °F 65% 30.07 in 10.0 mi NW 13.8 mph - N/A   Overcast
6:55 PM 39.0 °F 31.8 °F 25.0 °F 57% 30.06 in 10.0 mi NW 11.5 mph - N/A   Mostly Cloudy
7:55 PM 39.0 °F 30.6 °F 24.1 °F 55% 30.05 in 10.0 mi WNW 15.0 mph - N/A   Clear
8:55 PM 37.0 °F 33.3 °F 23.0 °F 57% 30.07 in 10.0 mi North 4.6 mph - N/A   Clear
9:55 PM 37.9 °F 30.0 °F 21.0 °F 51% 30.08 in 10.0 mi NW 12.7 mph - N/A   Clear
10:55 PM 36.0 °F 29.6 °F 21.9 °F 57% 30.09 in 10.0 mi NW 8.1 mph - N/A   Clear
11:55 PM 35.1 °F 25.5 °F 21.9 °F 59% 30.08 in 10.0 mi NW 15.0 mph - N/A   Clear